CZ-6A DEB, 60876

Orbit data source: Space-Track

CZ-6A DEB, 60876 is space debris in LEO originally from a launch on Tue, 06 Aug 2024 UTC launched from the Taiyaun Space Center, China (TSC). Debris objects in space refer to the collection of defunct objects orbiting the Earth. Examples of debris include non-operational satellites, rocket bodies, and fragments generated from explosions, collisions, or faulty payload assembly.

Loading next visibility...
Identifier
60876, 2024-140KF
Orbit
LEO
Country
Flag of CNCN / PRC
Related business
Manufacturer
SAST
Mission
Spacecraft
Bus & Motor
Unknown
Mass
Unknown
Launch date (UTC)
2024-08-06 (2 years ago)
Launch vehicle
Unknown
Launch site
Taiyaun Space Center, China (TSC)
Object type
Payload
Rocket body
Debris
Shape & HBR
Unknown shape, 0.1 m
Radar Cross Section
Medium (>0.1 m² and <1 m²)

Expand to show TLE details & history
Last TLE update: 17 hours ago

TLE from 17 hours ago
0 CZ-6A DEB
1 60876U 24140KF  26171.28168884  .00001278  00000-0  58896-3 0  9997
2 60876  89.0315 277.0307 0059020 171.0382 189.1876 14.19576408 95378
Epoch: 2026-06-20T06:45Z
TLE epoch observation values (Epoch: 2026-06-20T06:45:37.915Z)
Latitude
-0.00009°
Longitude
-92.87584°
Altitude
871.832 km
Speed
7.395 km/s
True Right ascension
18h 28m 07s
True Declination
0° 00' 00"
Sunlit
Object was in full shadow at epoch
Visualization orbit readout
Latitude
Unknown
Longitude
Unknown
Altitude
Unknown
Speed
Unknown
Apparent Right ascension
Unknown
Apparent Declination
Unknown
Sunlit
N/A
Visualization observer readout
Local Sidereal Time
10:18:31
Azimuth
Unknown
Elevation
Unknown
Doppler factor
Unknown
Orbital elements
Apogee altitude
866.243 km
Perigee altitude
781.232 km
Semi-major axis
7,201.874 km
Eccentricity
0.0059
Inclination
89.0315°
RAAN
277.0307°
Arg. of periapsis
171.0382°
True anomaly
189.08039°
Mean anomaly
189.1876°
Eccentric anomaly
189.13392°
Mean motion
3.5512 °/min
Orbital period
101.37 mins
BSTAR
0.00058896
Loading maneuver chart data...
Computing Atmospheric mass density...
Loading historical data...
Loading historical data...
Loading historical data...
Loading historical data...
Loading historical data...
Loading historical data...
Loading historical data...

Documentation

Showing up to 5 results
|